User: anonymous
Location: Unspecified
(0.0000°N, 0.0000°E)
Time: 15:47:44
(UTC+02:00)
Language:

ARIANE 5 R/B - Orbit

View from above orbital plane
View from above orbital plane
View from above satellite
View from above satellite

Ground track
Ground track

The orbit data is extracted from the following two-line orbital elements,

1 27387U 02009B   14261.47258855  .00000073  00000-0  39743-4 0  2630
2 27387 098.3245 220.9803 0031397 249.1813 219.7328 14.35735919657653
Epoch (UTC): 18 September 2014 11:20:31
Eccentricity: 0.0031397
inclination: 98.3245°
perigee height: 750 km
apogee height: 795 km
right ascension of ascending node: 220.9803°
argument of perigee: 249.1813°
revolutions per day: 14.35735919
mean anomaly at epoch: 219.7328°
orbit number at epoch: 65765

The dashed part of the orbit path shows where the satellite is in the earth's shadow,  

DLR